,,,PA_Meas_PMT16A,,PR_Meas_QMR101_102,,RH_Meas_QMH101,,SR_Meas_QMS101,,TA_Meas_QMH101,,GenWind,,GenWind,
date,time,status,PA,status,PR,status,RH,status,SR,status,TA,status,DirAvg,status,SpdAvg,
2008-04-01, 00:00:04,VALID,1010.51,VALID,0,VALID,95.81,VALID,0,VALID,23.6373,VALID,163,VALID,0,
2008-04-01, 00:01:04,VALID,1010.52,VALID,0,VALID,95.7947,VALID,0,VALID,23.5948,VALID,163,VALID,0,
2008-04-01, 00:02:04,VALID,1010.53,VALID,0,VALID,95.7718,VALID,0,VALID,23.5948,VALID,163,VALID,0,
2008-04-01, 00:03:04,VALID,1010.51,VALID,0,VALID,95.7413,VALID,0,VALID,23.6161,VALID,163,VALID,0.136719,
2008-04-01, 00:04:04,VALID,1010.51,VALID,0,VALID,95.7413,VALID,0,VALID,23.5966,VALID,163,VALID,0,
2008-04-01, 00:05:04,VALID,1010.51,VALID,0,VALID,95.7413,VALID,0,VALID,23.5984,VALID,163,VALID,0,
2008-04-01, 00:06:04,VALID,1010.5,VALID,0,VALID,95.7642,VALID,0,VALID,23.5771,VALID,163,VALID,0,
2008-04-01, 00:07:04,VALID,1010.46,VALID,0,VALID,95.7718,VALID,0,VALID,23.5966,VALID,163,VALID,0,
2008-04-01, 00:08:04,VALID,1010.45,VALID,0,VALID,95.7566,VALID,0,VALID,23.6179,VALID,163,VALID,0,
2008-04-01, 00:09:04,VALID,1010.43,VALID,0,VALID,95.7642,VALID,0,VALID,23.5966,VALID,163,VALID,0,
2008-04-01, 00:10:05,VALID,1010.39,VALID,0,VALID,95.8023,VALID,0,VALID,23.6161,VALID,163,VALID,0.0140625,
2008-04-01, 00:11:05,VALID,1010.39,VALID,0,VALID,95.81,VALID,0,VALID,23.6161,VALID,163,VALID,0.169922,
2008-04-01, 00:12:05,VALID,1010.34,VALID,0,VALID,95.8176,VALID,0,VALID,23.6161,VALID,163,VALID,0.317578,
2008-04-01, 00:13:05,VALID,1010.35,VALID,0,VALID,95.8176,VALID,0,VALID,23.6356,VALID,163,VALID,0.344141,
2008-04-01, 00:14:05,VALID,1010.34,VALID,0,VALID,95.8252,VALID,0,VALID,23.6356,VALID,163,VALID,0.335938,
2008-04-01, 00:15:05,VALID,1010.32,VALID,0,VALID,95.81,VALID,0,VALID,23.655,VALID,163,VALID,0.320703,
2008-04-01, 00:16:05,VALID,1010.33,VALID,0,VALID,95.7947,VALID,0,VALID,23.655,VALID,163,VALID,0.234375,
2008-04-01, 00:17:05,VALID,1010.33,VALID,0,VALID,95.7642,VALID,0.105969,VALID,23.6745,VALID,163,VALID,0.264844,
2008-04-01, 00:18:05,VALID,1010.33,VALID,0,VALID,95.7337,VALID,0,VALID,23.694,VALID,163,VALID,0.248047,
2008-04-01, 00:19:05,VALID,1010.34,VALID,0,VALID,95.7108,VALID,0,VALID,23.694,VALID,163,VALID,0.331641,
2008-04-01, 00:20:05,VALID,1010.34,VALID,0,VALID,95.6956,VALID,0,VALID,23.694,VALID,163,VALID,0.238672,
2008-04-01, 00:21:05,VALID,1010.3,VALID,0,VALID,95.6651,VALID,0,VALID,23.694,VALID,163,VALID,0.292188,
2008-04-01, 00:22:05,VALID,1010.3,VALID,0,VALID,95.6269,VALID,0.105969,VALID,23.6727,VALID,163,VALID,0.369141,
2008-04-01, 00:23:05,VALID,1010.28,VALID,0,VALID,95.6041,VALID,0,VALID,23.694,VALID,163,VALID,0.294141,
2008-04-01, 00:24:05,VALID,1010.26,VALID,0,VALID,95.5659,VALID,0,VALID,23.694,VALID,163,VALID,0.317187,
2008-04-01, 00:25:05,VALID,1010.27,VALID,0,VALID,95.5583,VALID,0.105969,VALID,23.6532,VALID,163,VALID,0.390625,
2008-04-01, 00:26:05,VALID,1010.24,VALID,0,VALID,95.5583,VALID,0,VALID,23.6532,VALID,163,VALID,0.538672,
2008-04-01, 00:27:05,VALID,1010.23,VALID,0,VALID,95.5202,VALID,0.105969,VALID,23.6745,VALID,163,VALID,0.442578,
2008-04-01, 00:28:05,VALID,1010.21,VALID,0,VALID,95.5126,VALID,0,VALID,23.6745,VALID,163,VALID,0.332422,
2008-04-01, 00:29:05,VALID,1010.22,VALID,0,VALID,95.5431,VALID,0.105969,VALID,23.655,VALID,163,VALID,0.266406,
2008-04-01, 00:30:05,VALID,1010.21,VALID,0,VALID,95.5507,VALID,0.105969,VALID,23.6745,VALID,163,VALID,0.421094,
2008-04-01, 00:31:05,VALID,1010.2,VALID,0,VALID,95.5659,VALID,0.105969,VALID,23.655,VALID,163,VALID,0.397266,
2008-04-01, 00:32:05,VALID,1010.21,VALID,0,VALID,95.5736,VALID,0,VALID,23.655,VALID,163,VALID,0.776953,
2008-04-01, 00:33:05,VALID,1010.24,VALID,0,VALID,95.5812,VALID,0,VALID,23.6338,VALID,163,VALID,0.551172,
2008-04-01, 00:34:05,VALID,1010.25,VALID,0,VALID,95.5736,VALID,0.105969,VALID,23.655,VALID,178,VALID,0.760938,
2008-04-01, 00:35:05,VALID,1010.24,VALID,0,VALID,95.5583,VALID,0,VALID,23.655,VALID,176,VALID,0.721875,
2008-04-01, 00:36:05,VALID,1010.26,VALID,0,VALID,95.5812,VALID,0,VALID,23.655,VALID,166,VALID,0.603516,
2008-04-01, 00:37:05,VALID,1010.22,VALID,0,VALID,95.5964,VALID,0.105969,VALID,23.655,VALID,178,VALID,0.651563,
2008-04-01, 00:38:05,VALID,1010.22,VALID,0,VALID,95.6193,VALID,0,VALID,23.655,VALID,167,VALID,0.574219,
2008-04-01, 00:39:05,VALID,1010.22,VALID,0,VALID,95.5888,VALID,0,VALID,23.6745,VALID,155,VALID,0.473828,
2008-04-01, 00:40:05,VALID,1010.24,VALID,0,VALID,95.5736,VALID,0.105969,VALID,23.6532,VALID,155,VALID,0.572656,
2008-04-01, 00:41:05,VALID,1010.21,VALID,0,VALID,95.6117,VALID,0.105969,VALID,23.6745,VALID,167,VALID,0.650391,
2008-04-01, 00:42:05,VALID,1010.25,VALID,0,VALID,95.6574,VALID,0.105969,VALID,23.6727,VALID,182,VALID,0.817969,
2008-04-01, 00:43:05,VALID,1010.22,VALID,0,VALID,95.6269,VALID,0.105969,VALID,23.655,VALID,179,VALID,0.619922,
2008-04-01, 00:44:05,VALID,1010.22,VALID,0,VALID,95.6422,VALID,0.105969,VALID,23.694,VALID,193,VALID,1.28008,
2008-04-01, 00:45:05,VALID,1010.23,VALID,0,VALID,95.6346,VALID,0,VALID,23.7135,VALID,176,VALID,1.09805,
2008-04-01, 00:46:05,VALID,1010.2,VALID,0,VALID,95.5583,VALID,0.105969,VALID,23.7135,VALID,159,VALID,0.894531,
2008-04-01, 00:47:05,VALID,1010.22,VALID,0,VALID,95.5202,VALID,0.105969,VALID,23.7135,VALID,160,VALID,0.892578,
2008-04-01, 00:48:05,VALID,1010.2,VALID,0,VALID,95.4668,VALID,0,VALID,23.6922,VALID,160,VALID,0.801172,
2008-04-01, 00:49:05,VALID,1010.19,VALID,0,VALID,95.4592,VALID,0.105969,VALID,23.733,VALID,162,VALID,0.866797,
2008-04-01, 00:50:05,VALID,1010.18,VALID,0,VALID,95.4287,VALID,0,VALID,23.6922,VALID,163,VALID,0.66875,
2008-04-01, 00:51:05,VALID,1010.19,VALID,0,VALID,95.4134,VALID,0.105969,VALID,23.7312,VALID,146,VALID,0.914453,
2008-04-01, 00:52:05,VALID,1010.18,VALID,0,VALID,95.3677,VALID,0.105969,VALID,23.7312,VALID,147,VALID,0.685547,
2008-04-01, 00:53:05,VALID,1010.18,VALID,0,VALID,95.3295,VALID,0,VALID,23.7525,VALID,161,VALID,0.801953,
2008-04-01, 00:54:05,VALID,1010.15,VALID,0,VALID,95.3143,VALID,0.105969,VALID,23.7117,VALID,178,VALID,0.838281,
2008-04-01, 00:55:05,VALID,1010.17,VALID,0,VALID,95.2838,VALID,0.105969,VALID,23.7117,VALID,140,VALID,0.519141,
2008-04-01, 00:56:05,VALID,1010.2,VALID,0,VALID,95.2685,VALID,0.105969,VALID,23.733,VALID,149,VALID,0.629687,
2008-04-01, 00:57:05,VALID,1010.19,VALID,0,VALID,95.2457,VALID,0.105969,VALID,23.7117,VALID,150,VALID,0.269922,
2008-04-01, 00:58:05,VALID,1010.21,VALID,0,VALID,95.2152,VALID,0.105969,VALID,23.733,VALID,159,VALID,0.627344,
2008-04-01, 00:59:05,VALID,1010.24,VALID,0,VALID,95.238,VALID,0,VALID,23.733,VALID,132,VALID,0.619922,
2008-04-01, 01:00:05,VALID,1010.22,VALID,0,VALID,95.1923,VALID,0.105969,VALID,23.6922,VALID,164,VALID,0.504687,
2008-04-01, 01:01:05,VALID,1010.23,VALID,0,VALID,95.1847,VALID,0.105969,VALID,23.733,VALID,155,VALID,0.402344,
2008-04-01, 01:02:05,VALID,1010.22,VALID,0,VALID,95.1847,VALID,0.105969,VALID,23.7117,VALID,131,VALID,0.818359,
2008-04-01, 01:03:05,VALID,1010.2,VALID,0,VALID,95.1694,VALID,0.105969,VALID,23.7117,VALID,132,VALID,0.898438,
2008-04-01, 01:04:05,VALID,1010.2,VALID,0,VALID,95.1465,VALID,0,VALID,23.6922,VALID,142,VALID,0.928125,
2008-04-01, 01:05:05,VALID,1010.2,VALID,0,VALID,95.1389,VALID,0.105969,VALID,23.7135,VALID,142,VALID,0.673828,
2008-04-01, 01:06:05,VALID,1010.21,VALID,0,VALID,95.1542,VALID,0.105969,VALID,23.7135,VALID,138,VALID,0.507813,
2008-04-01, 01:07:05,VALID,1010.19,VALID,0,VALID,95.1847,VALID,0.105969,VALID,23.7117,VALID,130,VALID,0.692578,
2008-04-01, 01:08:05,VALID,1010.18,VALID,0,VALID,95.1542,VALID,0,VALID,23.6727,VALID,130,VALID,0.5625,
2008-04-01, 01:09:05,VALID,1010.19,VALID,0,VALID,95.1847,VALID,0,VALID,23.6745,VALID,131,VALID,0.585938,
2008-04-01, 01:10:05,VALID,1010.18,VALID,0,VALID,95.1694,VALID,0,VALID,23.6745,VALID,131,VALID,0.559766,
2008-04-01, 01:11:05,VALID,1010.2,VALID,0,VALID,95.1847,VALID,0.105969,VALID,23.6727,VALID,130,VALID,0.315234,
2008-04-01, 01:12:05,VALID,1010.18,VALID,0,VALID,95.1847,VALID,0,VALID,23.694,VALID,130,VALID,0.212891,
2008-04-01, 01:13:05,VALID,1010.17,VALID,0,VALID,95.177,VALID,0.105969,VALID,23.6727,VALID,130,VALID,0.0136719,
2008-04-01, 01:14:05,VALID,1010.13,VALID,0,VALID,95.1694,VALID,0.105969,VALID,23.6745,VALID,130,VALID,0.300391,
2008-04-01, 01:15:05,VALID,1010.14,VALID,0,VALID,95.2304,VALID,0.105969,VALID,23.694,VALID,126,VALID,0.585547,
2008-04-01, 01:16:05,VALID,1010.13,VALID,0,VALID,95.2533,VALID,0.105969,VALID,23.694,VALID,123,VALID,0.569531,
2008-04-01, 01:17:05,VALID,1010.11,VALID,0,VALID,95.2457,VALID,0.105969,VALID,23.6922,VALID,104,VALID,0.525781,
2008-04-01, 01:18:05,VALID,1010.12,VALID,0,VALID,95.238,VALID,0.105969,VALID,23.6727,VALID,119,VALID,0.503516,
2008-04-01, 01:19:05,VALID,1010.1,VALID,0,VALID,95.2457,VALID,0.105969,VALID,23.694,VALID,104,VALID,0.739062,
2008-04-01, 01:20:05,VALID,1010.08,VALID,0,VALID,95.2304,VALID,0.211938,VALID,23.6532,VALID,84,VALID,0.625781,
2008-04-01, 01:21:05,VALID,1010.08,VALID,0,VALID,95.2457,VALID,0.105969,VALID,23.6745,VALID,84,VALID,0.616016,
2008-04-01, 01:22:05,VALID,1010.07,VALID,0,VALID,95.238,VALID,0.105969,VALID,23.6727,VALID,103,VALID,0.879687,
2008-04-01, 01:23:05,VALID,1010.06,VALID,0,VALID,95.2152,VALID,0.105969,VALID,23.6532,VALID,95,VALID,1.02266,
2008-04-01, 01:24:05,VALID,1010.06,VALID,0,VALID,95.177,VALID,0.105969,VALID,23.6532,VALID,110,VALID,0.752344,
2008-04-01, 01:25:05,VALID,1010.04,VALID,0,VALID,95.116,VALID,0.105969,VALID,23.6745,VALID,136,VALID,0.822266,
2008-04-01, 01:26:05,VALID,1009.99,VALID,0,VALID,95.0321,VALID,0.105969,VALID,23.655,VALID,138,VALID,0.927734,
2008-04-01, 01:27:05,VALID,1010,VALID,0,VALID,95.0093,VALID,0.105969,VALID,23.655,VALID,141,VALID,0.725,
2008-04-01, 01:28:05,VALID,1009.99,VALID,0,VALID,94.9864,VALID,0.105969,VALID,23.6143,VALID,135,VALID,0.737891,
2008-04-01, 01:29:05,VALID,1009.98,VALID,0,VALID,94.9711,VALID,0,VALID,23.6161,VALID,148,VALID,0.734375,
2008-04-01, 01:30:05,VALID,1009.97,VALID,0,VALID,94.9711,VALID,0.105969,VALID,23.6161,VALID,136,VALID,0.802344,
2008-04-01, 01:31:05,VALID,1009.96,VALID,0,VALID,95.0169,VALID,0.105969,VALID,23.5966,VALID,135,VALID,0.545703,
2008-04-01, 01:32:05,VALID,1009.94,VALID,0,VALID,95.0321,VALID,0.105969,VALID,23.5771,VALID,144,VALID,0.370703,
2008-04-01, 01:33:05,VALID,1009.96,VALID,0,VALID,95.0779,VALID,0.105969,VALID,23.5363,VALID,147,VALID,0.488672,
2008-04-01, 01:34:05,VALID,1009.93,VALID,0,VALID,95.116,VALID,0.105969,VALID,23.5363,VALID,147,VALID,0.279687,
2008-04-01, 01:35:05,VALID,1009.92,VALID,0,VALID,95.1618,VALID,0.105969,VALID,23.5381,VALID,147,VALID,0.462109,
2008-04-01, 01:36:05,VALID,1009.92,VALID,0,VALID,95.2075,VALID,0.105969,VALID,23.5576,VALID,131,VALID,0.622266,
2008-04-01, 01:37:05,VALID,1009.89,VALID,0,VALID,95.2685,VALID,0.105969,VALID,23.5169,VALID,127,VALID,0.572656,
2008-04-01, 01:38:05,VALID,1009.88,VALID,0,VALID,95.2914,VALID,0,VALID,23.5381,VALID,134,VALID,0.495703,
2008-04-01, 01:39:05,VALID,1009.87,VALID,0,VALID,95.2838,VALID,0,VALID,23.5381,VALID,134,VALID,0.498047,
2008-04-01, 01:40:05,VALID,1009.87,VALID,0,VALID,95.3524,VALID,0.105969,VALID,23.5186,VALID,126,VALID,0.781641,
2008-04-01, 01:41:05,VALID,1009.84,VALID,0,VALID,95.3372,VALID,0.105969,VALID,23.4779,VALID,158,VALID,0.773438,
2008-04-01, 01:42:05,VALID,1009.86,VALID,0,VALID,95.36,VALID,0.105969,VALID,23.4797,VALID,137,VALID,0.613672,
2008-04-01, 01:43:05,VALID,1009.83,VALID,0,VALID,95.3753,VALID,0,VALID,23.4797,VALID,131,VALID,0.797266,
2008-04-01, 01:44:05,VALID,1009.83,VALID,0,VALID,95.4211,VALID,0.105969,VALID,23.4797,VALID,125,VALID,0.70625,
2008-04-01, 01:45:05,VALID,1009.83,VALID,0,VALID,95.4134,VALID,0.105969,VALID,23.4602,VALID,143,VALID,0.530859,
2008-04-01, 01:46:05,VALID,1009.82,VALID,0,VALID,95.4363,VALID,0.105969,VALID,23.4602,VALID,125,VALID,0.778125,
2008-04-01, 01:47:05,VALID,1009.84,VALID,0,VALID,95.4516,VALID,0.105969,VALID,23.4602,VALID,164,VALID,0.660937,
2008-04-01, 01:48:05,VALID,1009.79,VALID,0,VALID,95.4744,VALID,0.105969,VALID,23.4602,VALID,124,VALID,0.755859,
2008-04-01, 01:49:05,VALID,1009.77,VALID,0,VALID,95.4973,VALID,0.105969,VALID,23.4407,VALID,121,VALID,0.984375,
2008-04-01, 01:50:05,VALID,1009.77,VALID,0,VALID,95.4897,VALID,0,VALID,23.4407,VALID,152,VALID,0.847266,
2008-04-01, 01:51:05,VALID,1009.73,VALID,0,VALID,95.4897,VALID,0.105969,VALID,23.4194,VALID,139,VALID,0.658984,
2008-04-01, 01:52:05,VALID,1009.68,VALID,0,VALID,95.4973,VALID,0.105969,VALID,23.462,VALID,125,VALID,0.980469,
2008-04-01, 01:53:05,VALID,1009.67,VALID,0,VALID,95.5049,VALID,0.105969,VALID,23.4212,VALID,124,VALID,0.685547,
2008-04-01, 01:54:05,VALID,1009.69,VALID,0,VALID,95.4973,VALID,0.105969,VALID,23.4212,VALID,127,VALID,0.694531,
2008-04-01, 01:55:05,VALID,1009.65,VALID,0,VALID,95.4744,VALID,0.105969,VALID,23.4212,VALID,145,VALID,0.54375,
2008-04-01, 01:56:05,VALID,1009.64,VALID,0,VALID,95.4744,VALID,0.105969,VALID,23.4017,VALID,131,VALID,0.914063,
2008-04-01, 01:57:05,VALID,1009.64,VALID,0,VALID,95.4973,VALID,0,VALID,23.4017,VALID,138,VALID,0.862109,
2008-04-01, 01:58:05,VALID,1009.62,VALID,0,VALID,95.4897,VALID,0.105969,VALID,23.3823,VALID,142,VALID,0.791797,
2008-04-01, 01:59:05,VALID,1009.64,VALID,0,VALID,95.4897,VALID,0.105969,VALID,23.4017,VALID,150,VALID,0.803906,
2008-04-01, 02:00:05,VALID,1009.64,VALID,0,VALID,95.5049,VALID,0.105969,VALID,23.3823,VALID,155,VALID,0.883203,
2008-04-01, 02:01:05,VALID,1009.64,VALID,0,VALID,95.4821,VALID,0.105969,VALID,23.3415,VALID,118,VALID,0.557031,
2008-04-01, 02:02:05,VALID,1009.64,VALID,0,VALID,95.4973,VALID,0.105969,VALID,23.3628,VALID,138,VALID,0.978125,
2008-04-01, 02:03:05,VALID,1009.65,VALID,0,VALID,95.5126,VALID,0.105969,VALID,23.3628,VALID,154,VALID,0.737891,
2008-04-01, 02:04:05,VALID,1009.66,VALID,0,VALID,95.5278,VALID,0.105969,VALID,23.322,VALID,134,VALID,0.389844,
2008-04-01, 02:05:05,VALID,1009.68,VALID,0,VALID,95.5278,VALID,0.105969,VALID,23.3433,VALID,136,VALID,0.695703,
2008-04-01, 02:06:05,VALID,1009.7,VALID,0,VALID,95.5278,VALID,0.105969,VALID,23.3026,VALID,140,VALID,0.687109,
2008-04-01, 02:07:05,VALID,1009.71,VALID,0,VALID,95.5431,VALID,0.105969,VALID,23.3026,VALID,139,VALID,0.722656,
2008-04-01, 02:08:05,VALID,1009.74,VALID,0,VALID,95.5659,VALID,0.105969,VALID,23.3238,VALID,133,VALID,0.609766,
2008-04-01, 02:09:05,VALID,1009.76,VALID,0,VALID,95.5507,VALID,0.105969,VALID,23.3238,VALID,133,VALID,0.280469,
2008-04-01, 02:10:05,VALID,1009.76,VALID,0,VALID,95.5354,VALID,0.105969,VALID,23.3238,VALID,133,VALID,0.165625,
2008-04-01, 02:11:05,VALID,1009.77,VALID,0,VALID,95.5431,VALID,0,VALID,23.3238,VALID,133,VALID,0.247656,
2008-04-01, 02:12:05,VALID,1009.76,VALID,0,VALID,95.5583,VALID,0,VALID,23.3238,VALID,111,VALID,0.416016,
2008-04-01, 02:13:05,VALID,1009.75,VALID,0,VALID,95.5583,VALID,0,VALID,23.3238,VALID,120,VALID,0.555859,
2008-04-01, 02:14:05,VALID,1009.75,VALID,0,VALID,95.5354,VALID,0,VALID,23.3238,VALID,117,VALID,0.258984,
2008-04-01, 02:15:05,VALID,1009.77,VALID,0,VALID,95.5126,VALID,0,VALID,23.3238,VALID,117,VALID,0.199219,
2008-04-01, 02:16:05,VALID,1009.75,VALID,0,VALID,95.5049,VALID,0,VALID,23.3043,VALID,101,VALID,0.276563,
2008-04-01, 02:17:05,VALID,1009.8,VALID,0,VALID,95.4592,VALID,0,VALID,23.3238,VALID,101,VALID,0.308594,
2008-04-01, 02:18:05,VALID,1009.79,VALID,0,VALID,95.4439,VALID,0,VALID,23.3043,VALID,102,VALID,0.308984,
2008-04-01, 02:19:05,VALID,1009.84,VALID,0,VALID,95.4363,VALID,0,VALID,23.3043,VALID,117,VALID,0.304297,
2008-04-01, 02:20:05,VALID,1009.84,VALID,0,VALID,95.4211,VALID,0,VALID,23.3043,VALID,118,VALID,0.449609,
2008-04-01, 02:21:05,VALID,1009.83,VALID,0,VALID,95.3829,VALID,0,VALID,23.2848,VALID,119,VALID,0.415234,
2008-04-01, 02:22:05,VALID,1009.84,VALID,0,VALID,95.4439,VALID,0.105969,VALID,23.3043,VALID,119,VALID,0.264844,
2008-04-01, 02:23:05,VALID,1009.8,VALID,0,VALID,95.4516,VALID,0,VALID,23.2654,VALID,119,VALID,0.106641,
2008-04-01, 02:24:05,VALID,1009.82,VALID,0,VALID,95.4363,VALID,0,VALID,23.2848,VALID,119,VALID,0.144141,
2008-04-01, 02:25:05,VALID,1009.81,VALID,0,VALID,95.4516,VALID,0,VALID,23.2654,VALID,93,VALID,0.352344,
2008-04-01, 02:26:05,VALID,1009.81,VALID,0,VALID,95.4744,VALID,0,VALID,23.2848,VALID,91,VALID,0.315625,
2008-04-01, 02:27:05,VALID,1009.81,VALID,0,VALID,95.4363,VALID,0,VALID,23.2636,VALID,91,VALID,0.112109,
2008-04-01, 02:28:05,VALID,1009.78,VALID,0,VALID,95.4363,VALID,0,VALID,23.2459,VALID,91,VALID,0.223047,
2008-04-01, 02:29:05,VALID,1009.8,VALID,0,VALID,95.4668,VALID,0,VALID,23.2459,VALID,84,VALID,0.49375,
2008-04-01, 02:30:05,VALID,1009.78,VALID,0,VALID,95.5049,VALID,0,VALID,23.2246,VALID,81,VALID,0.539453,
2008-04-01, 02:31:05,VALID,1009.78,VALID,0,VALID,95.4973,VALID,0,VALID,23.2654,VALID,74,VALID,0.64375,
2008-04-01, 02:32:05,VALID,1009.74,VALID,0,VALID,95.4592,VALID,0,VALID,23.2459,VALID,66,VALID,0.725781,
2008-04-01, 02:33:05,VALID,1009.75,VALID,0,VALID,95.4744,VALID,0,VALID,23.2459,VALID,73,VALID,0.670313,
2008-04-01, 02:34:05,VALID,1009.72,VALID,0,VALID,95.4668,VALID,0,VALID,23.2264,VALID,78,VALID,1.00039,
2008-04-01, 02:35:05,VALID,1009.73,VALID,0,VALID,95.4744,VALID,0,VALID,23.2459,VALID,75,VALID,0.760547,
2008-04-01, 02:36:05,VALID,1009.7,VALID,0,VALID,95.4897,VALID,0,VALID,23.2264,VALID,88,VALID,0.775,
2008-04-01, 02:37:05,VALID,1009.68,VALID,0,VALID,95.4821,VALID,0.105969,VALID,23.2264,VALID,86,VALID,0.912109,
2008-04-01, 02:38:05,VALID,1009.69,VALID,0,VALID,95.4744,VALID,0,VALID,23.2264,VALID,86,VALID,0.590234,
2008-04-01, 02:39:05,VALID,1009.67,VALID,0,VALID,95.4821,VALID,0,VALID,23.2264,VALID,84,VALID,0.925781,
2008-04-01, 02:40:05,VALID,1009.65,VALID,0,VALID,95.4973,VALID,0,VALID,23.1874,VALID,74,VALID,0.620703,
2008-04-01, 02:41:05,VALID,1009.66,VALID,0,VALID,95.4897,VALID,0,VALID,23.1874,VALID,73,VALID,0.585938,
2008-04-01, 02:42:05,VALID,1009.67,VALID,0,VALID,95.5278,VALID,0,VALID,23.1874,VALID,73,VALID,0.457422,
2008-04-01, 02:43:05,VALID,1009.64,VALID,0,VALID,95.4897,VALID,0,VALID,23.1679,VALID,52,VALID,0.3125,
2008-04-01, 02:44:05,VALID,1009.67,VALID,0,VALID,95.5126,VALID,0.105969,VALID,23.1679,VALID,43,VALID,0.423047,
2008-04-01, 02:45:05,VALID,1009.66,VALID,0,VALID,95.5049,VALID,0,VALID,23.129,VALID,58,VALID,0.596094,
2008-04-01, 02:46:05,VALID,1009.67,VALID,0,VALID,95.5278,VALID,0,VALID,23.1095,VALID,65,VALID,0.305078,
2008-04-01, 02:47:05,VALID,1009.66,VALID,0,VALID,95.5354,VALID,0,VALID,23.0883,VALID,69,VALID,0.446484,
2008-04-01, 02:48:05,VALID,1009.65,VALID,0,VALID,95.5736,VALID,0.105969,VALID,23.0688,VALID,67,VALID,0.413281,
2008-04-01, 02:49:05,VALID,1009.64,VALID,0,VALID,95.6193,VALID,0,VALID,23.0705,VALID,71,VALID,0.557031,
2008-04-01, 02:50:05,VALID,1009.62,VALID,0,VALID,95.6574,VALID,0,VALID,23.09,VALID,71,VALID,0.555859,
2008-04-01, 02:51:05,VALID,1009.62,VALID,0,VALID,95.7032,VALID,0,VALID,23.0511,VALID,81,VALID,0.915234,
2008-04-01, 02:52:05,VALID,1009.58,VALID,0,VALID,95.7413,VALID,0,VALID,23.0511,VALID,87,VALID,0.716016,
2008-04-01, 02:53:05,VALID,1009.57,VALID,0,VALID,95.7642,VALID,0,VALID,23.0511,VALID,81,VALID,0.730859,
2008-04-01, 02:54:04,VALID,1009.54,VALID,0,VALID,95.7718,VALID,0,VALID,23.0705,VALID,74,VALID,1.03789,
2008-04-01, 02:55:04,VALID,1009.52,VALID,0,VALID,95.7718,VALID,0,VALID,23.0511,VALID,80,VALID,0.912109,
2008-04-01, 02:56:04,VALID,1009.51,VALID,0,VALID,95.7871,VALID,0,VALID,23.0316,VALID,77,VALID,0.978906,
2008-04-01, 02:57:04,VALID,1009.51,VALID,0,VALID,95.8252,VALID,0,VALID,23.0316,VALID,78,VALID,1.1082,
2008-04-01, 02:58:04,VALID,1009.51,VALID,0,VALID,95.8405,VALID,0,VALID,23.0316,VALID,78,VALID,0.826172,
2008-04-01, 02:59:04,VALID,1009.51,VALID,0,VALID,95.8023,VALID,0.105969,VALID,23.0121,VALID,81,VALID,0.426562,
2008-04-01, 03:00:04,VALID,1009.5,VALID,0,VALID,95.8328,VALID,0,VALID,23.0121,VALID,90,VALID,0.665625,
2008-04-01, 03:01:04,VALID,1009.52,VALID,0,VALID,95.8328,VALID,0,VALID,23.0316,VALID,87,VALID,0.901172,
2008-04-01, 03:02:04,VALID,1009.55,VALID,0,VALID,95.871,VALID,0,VALID,22.9926,VALID,75,VALID,0.773047,
2008-04-01, 03:03:04,VALID,1009.54,VALID,0,VALID,95.8633,VALID,0.105969,VALID,22.9731,VALID,91,VALID,0.777734,
2008-04-01, 03:04:04,VALID,1009.53,VALID,0,VALID,95.9015,VALID,0,VALID,22.9926,VALID,88,VALID,0.842578,
2008-04-01, 03:05:04,VALID,1009.54,VALID,0,VALID,95.9244,VALID,0,VALID,22.9926,VALID,113,VALID,0.455859,
2008-04-01, 03:06:04,VALID,1009.5,VALID,0,VALID,95.9244,VALID,0,VALID,22.9731,VALID,97,VALID,0.855859,
2008-04-01, 03:07:04,VALID,1009.49,VALID,0,VALID,95.932,VALID,0,VALID,22.9926,VALID,90,VALID,0.84375,
2008-04-01, 03:08:04,VALID,1009.49,VALID,0,VALID,95.932,VALID,0,VALID,22.9926,VALID,104,VALID,0.813281,
2008-04-01, 03:09:04,VALID,1009.51,VALID,0,VALID,95.8939,VALID,0.105969,VALID,22.9926,VALID,105,VALID,0.594922,
2008-04-01, 03:10:04,VALID,1009.48,VALID,0,VALID,95.9167,VALID,0.105969,VALID,22.9926,VALID,109,VALID,1.2125,
2008-04-01, 03:11:04,VALID,1009.51,VALID,0,VALID,95.8862,VALID,0,VALID,22.9749,VALID,106,VALID,0.594141,
2008-04-01, 03:12:04,VALID,1009.49,VALID,0,VALID,95.8633,VALID,0,VALID,22.9749,VALID,106,VALID,0.498437,
2008-04-01, 03:13:04,VALID,1009.5,VALID,0,VALID,95.8481,VALID,0,VALID,22.9749,VALID,108,VALID,0.586719,
2008-04-01, 03:14:04,VALID,1009.52,VALID,0,VALID,95.9015,VALID,0,VALID,22.9749,VALID,109,VALID,1.23945,
2008-04-01, 03:15:04,VALID,1009.5,VALID,0,VALID,95.8633,VALID,0,VALID,22.9342,VALID,85,VALID,0.576563,
2008-04-01, 03:16:04,VALID,1009.47,VALID,0,VALID,95.8633,VALID,0,VALID,22.9554,VALID,73,VALID,1.09961,
2008-04-01, 03:17:04,VALID,1009.49,VALID,0,VALID,95.8176,VALID,0,VALID,22.9554,VALID,63,VALID,0.824219,
2008-04-01, 03:18:04,VALID,1009.47,VALID,0,VALID,95.8405,VALID,0,VALID,22.9554,VALID,65,VALID,0.751953,
2008-04-01, 03:19:04,VALID,1009.49,VALID,0,VALID,95.7795,VALID,0,VALID,22.9164,VALID,59,VALID,0.508984,
2008-04-01, 03:20:04,VALID,1009.51,VALID,0,VALID,95.8176,VALID,0,VALID,22.9164,VALID,75,VALID,0.773438,
2008-04-01, 03:21:04,VALID,1009.5,VALID,0,VALID,95.7642,VALID,0,VALID,22.8969,VALID,63,VALID,0.554297,
2008-04-01, 03:22:04,VALID,1009.51,VALID,0,VALID,95.7566,VALID,0,VALID,22.8969,VALID,36,VALID,0.580469,
2008-04-01, 03:23:04,VALID,1009.51,VALID,0,VALID,95.8252,VALID,0,VALID,22.858,VALID,44,VALID,0.619141,
2008-04-01, 03:24:04,VALID,1009.53,VALID,0,VALID,95.8328,VALID,0,VALID,22.858,VALID,45,VALID,0.339844,
2008-04-01, 03:25:04,VALID,1009.55,VALID,0,VALID,95.871,VALID,0,VALID,22.8385,VALID,43,VALID,0.817187,
2008-04-01, 03:26:04,VALID,1009.53,VALID,0,VALID,95.9015,VALID,0.105969,VALID,22.8173,VALID,25,VALID,0.808984,
2008-04-01, 03:27:04,VALID,1009.56,VALID,0,VALID,95.9015,VALID,0.105969,VALID,22.8173,VALID,44,VALID,0.471484,
2008-04-01, 03:28:04,VALID,1009.61,VALID,0,VALID,95.9091,VALID,0,VALID,22.7978,VALID,60,VALID,0.382031,
2008-04-01, 03:29:04,VALID,1009.64,VALID,0,VALID,96.0006,VALID,0,VALID,22.8173,VALID,73,VALID,0.892969,
2008-04-01, 03:30:04,VALID,1009.65,VALID,0,VALID,96.0159,VALID,0.105969,VALID,22.8562,VALID,64,VALID,0.552344,
2008-04-01, 03:31:04,VALID,1009.65,VALID,0,VALID,96.0235,VALID,0.105969,VALID,22.7978,VALID,50,VALID,0.545703,
2008-04-01, 03:32:04,VALID,1009.69,VALID,0,VALID,96.0616,VALID,0.105969,VALID,22.8173,VALID,86,VALID,0.560938,
2008-04-01, 03:33:04,VALID,1009.72,VALID,0,VALID,96.0311,VALID,0.105969,VALID,22.7766,VALID,71,VALID,0.402344,
2008-04-01, 03:34:04,VALID,1009.73,VALID,0,VALID,96.0235,VALID,0.105969,VALID,22.7766,VALID,55,VALID,0.590234,
2008-04-01, 03:35:04,VALID,1009.76,VALID,0,VALID,96.0921,VALID,0,VALID,22.7783,VALID,40,VALID,0.698828,
2008-04-01, 03:36:04,VALID,1009.76,VALID,0,VALID,96.0845,VALID,0,VALID,22.7783,VALID,53,VALID,0.261328,
2008-04-01, 03:37:04,VALID,1009.76,VALID,0,VALID,96.1074,VALID,0,VALID,22.7766,VALID,53,VALID,0.357031,
2008-04-01, 03:38:04,VALID,1009.74,VALID,0,VALID,96.115,VALID,0.105969,VALID,22.7978,VALID,47,VALID,0.472266,
2008-04-01, 03:39:04,VALID,1009.75,VALID,0,VALID,96.0921,VALID,0,VALID,22.7783,VALID,74,VALID,0.355859,